LAPAN-A2

Last updated on Sat Apr 13 2024 01:02:24 GMT+0100 (British Summer Time)

1 40931U 15052B 24103.27984187 .00001302 00000+0 89169-4 0 9998 2 40931 6.0024 103.6088 0013308 228.3279 131.5709 14.77729138461696
UTC large
Height (km)
Speed (km/s)
/
Latitude / Longitude
Inclination (degrees)
Orbital Period (minutes)
Azimuth
Elevation
Range (km)
Doppler Factor

Next 0 passes for location: London (51.5072 / 0.1276)

Sorry there are no passes over London.